Theta_e
349 350 350 348 347 346 346 347 347 346 349 350 350 350 350 352 353 351 350 350 351 346 349 345 353 354 355 354 354 355 355 353 352
349 350 351 350 348 347 347 346 347 348 349 352 352 351 352 353 355 353 349 350 352 352 350 349 354 352 352 353 354 355 355 352 352
346 349 350 350 350 349 348 348 347 348 349 352 354 352 353 353 353 354 354 351 354 351 352 353 353 352 353 353 354 353 355 352 352
342 343 344 347 349 350 349 348 348 349 350 351 354 353 352 354 354 353 353 351 351 351 352 352 353 353 352 353 353 353 354 353 354
343 346 345 347 348 348 350 350 348 350 352 352 352 352 352 353 354 353 352 352 351 353 352 353 352 353 353 354 352 353 354 354 353
347 347 346 347 349 352 350 351 352 352 353 353 353 352 352 352 353 354 353 352 352 352 353 352 352 353 354 354 352 352 353 353 353
346 346 346 349 351 352 353 351 353 353 353 353 353 352 352 354 353 354 354 354 354 353 353 353 353 353 354 353 352 352 352 353 353
345 346 347 350 352 352 353 354 353 354 353 352 354 355 355 354 354 355 355 355 355 355 354 353 353 353 354 353 352 351 353 353 353
343 345 349 350 351 353 353 352 353 353 353 352 351 356 355 356 354 356 355 355 355 355 353 354 353 354 352 353 350 349 350 349 351
343 346 348 349 352 351 351 351 352 352 354 354 353 351 353 354 354 355 356 355 356 356 356 355 355 353 354 353 352 349 350 346 348
345 345 350 349 350 349 350 350 351 352 352 353 351 352 351 353 351 351 351 355 354 354 354 353 353 354 354 353 351 350 346 346 349
345 349 349 347 345 344 346 349 349 349 350 350 350 350 351 350 352 351 352 352 351 352 352 352 353 353 353 351 346 345 343 344 350
347 345 344 344 341 342 344 344 348 346 346 346 346 345 346 347 349 350 349 350 349 345 345 344 344 345 345 341 341 340 340 344 348
344 344 342 341 340 340 342 339 338 337 337 337 340 341 342 343 344 344 346 344 342 342 340 338 337 337 336 336 337 339 340 340 342
343 343 340 341 342 341 339 339 337 337 337 335 334 335 336 340 340 342 343 341 339 337 336 333 329 327 327 329 331 335 336 337 338
342 340 340 339 340 341 340 337 338 336 337 335 333 333 333 331 336 337 333 331 331 329 329 326 326 326 325 325 326 329 333 334 333
340 339 339 338 336 337 341 340 339 334 334 333 333 331 332 331 334 332 331 330 328 328 327 327 327 327 326 325 325 326 327 328 329
338 336 336 335 335 335 336 337 339 336 334 333 330 330 331 331 329 329 329 328 328 326 325 326 328 330 330 328 324 324 325 326 326
335 336 336 336 336 336 336 338 338 337 334 334 333 331 330 330 328 327 326 325 325 324 323 324 326 327 326 324 323 322 323 326 328
338 338 337 337 337 337 336 335 337 337 334 333 334 333 332 332 333 333 332 331 328 323 320 321 322 320 319 319 318 320 321 323 322
Wind_Speed
3 10 14 15 18 19 16 19 22 22 24 22 22 21 20 18 16 15 12 13 3 12 13 8 15 9 9 6 5 5 3 5 6
6 4 9 13 14 19 21 23 24 23 23 23 23 22 20 19 18 18 15 10 10 20 7 7 10 8 8 7 7 6 4 5 5
7 6 4 7 12 16 20 23 25 25 24 25 24 22 21 20 19 18 15 11 10 9 1 4 7 8 8 8 8 9 8 9 10
4 1 3 3 5 11 19 21 24 27 26 26 24 24 22 20 19 19 17 16 13 12 10 8 6 8 8 8 9 8 8 11 7
2 2 2 2 5 9 13 20 23 23 24 26 27 25 23 22 19 18 19 18 16 14 13 11 11 10 10 10 8 8 8 11 10
4 3 5 3 3 6 11 17 17 17 20 24 25 26 26 24 22 19 19 18 16 16 16 14 13 11 11 11 10 9 8 10 9
6 4 5 4 4 4 9 12 17 19 22 22 23 23 25 24 24 23 21 18 16 16 16 16 15 14 12 12 11 10 10 12 10
8 8 5 5 4 3 6 10 14 16 18 19 20 19 20 21 23 23 22 20 19 16 17 16 13 12 14 13 12 12 12 9 8
10 7 4 5 1 3 5 5 10 14 20 21 24 20 22 23 23 21 21 20 19 18 16 15 15 15 15 14 15 11 12 12 9
7 6 5 4 2 4 6 9 7 11 14 17 20 23 21 22 23 24 22 21 18 19 16 15 15 14 13 13 12 11 13 14 11
3 6 4 3 3 4 2 5 7 8 10 13 17 20 20 20 21 19 16 16 18 15 13 14 12 11 11 11 13 14 12 10 8
2 8 4 4 5 3 1 2 4 5 5 8 10 13 15 16 15 17 16 14 12 11 9 7 6 6 6 9 10 10 9 10 6
4 8 7 7 6 5 7 5 2 3 4 5 5 6 8 9 10 14 15 14 12 9 11 12 12 11 12 12 4 8 9 5 3
8 8 11 10 10 13 12 13 19 17 16 13 6 7 10 11 10 11 11 12 12 14 13 13 12 11 9 7 8 8 8 6 4
10 12 12 9 10 11 12 13 15 16 14 11 15 13 4 9 13 14 15 16 15 15 16 15 14 12 11 8 6 6 7 8 8
9 14 13 13 11 9 11 10 8 11 9 7 8 12 17 15 16 14 11 17 17 16 13 15 16 15 14 12 10 11 8 9 9
7 7 10 9 7 8 6 8 7 8 11 9 8 10 17 15 20 18 17 18 18 22 18 17 15 13 12 13 12 13 13 13 13
10 13 7 8 11 12 7 3 7 9 10 15 14 15 17 16 20 21 22 22 17 13 11 10 11 9 10 10 9 9 8 8 10
2 11 11 14 9 7 8 7 10 9 10 10 11 11 10 12 14 19 20 19 21 16 14 11 10 11 11 14 15 12 10 10 13
7 6 9 8 7 7 7 7 8 8 8 7 7 11 13 13 14 15 16 16 16 16 16 15 14 17 16 14 16 16 16 16 15
Wind_Direction
152 196 204 217 204 194 206 196 189 192 180 197 201 202 205 205 206 213 220 223 288 265 225 202 147 185 208 218 216 226 255 250 261
145 152 196 204 225 216 203 207 195 194 185 195 202 204 204 206 206 219 213 209 192 215 225 198 156 188 208 211 213 229 241 263 269
144 142 182 221 209 226 219 206 206 202 195 195 203 203 205 208 212 214 221 216 221 244 249 247 188 183 208 213 232 238 233 241 242
120 167 169 205 244 224 228 207 209 203 201 200 204 204 203 208 210 212 212 214 216 220 223 220 214 209 231 242 234 231 239 253 243
267 340 319 267 266 220 224 215 203 203 196 205 203 206 205 205 209 213 209 214 213 205 213 212 219 217 219 237 233 247 237 244 271
203 238 269 285 231 245 222 219 202 194 205 213 209 204 205 208 206 206 214 205 212 210 203 213 219 219 221 227 229 227 230 237 253
277 291 288 291 283 243 218 221 198 191 204 212 213 210 213 201 201 205 208 208 206 209 209 208 217 220 220 217 219 230 231 230 236
279 260 268 286 272 208 215 210 214 203 209 211 210 214 207 203 202 203 206 206 205 212 207 212 216 221 220 222 228 236 230 237 238
259 256 251 236 216 304 303 280 208 207 208 211 212 209 202 200 201 204 212 210 204 210 215 211 209 212 222 229 234 235 208 213 242
252 249 243 284 123 241 249 245 256 229 216 211 205 204 203 205 195 205 208 212 210 215 209 218 217 217 217 229 240 242 238 244 238
238 231 32 356 50 36 289 253 235 228 235 221 212 206 200 198 198 196 206 219 212 213 212 222 226 225 226 229 219 229 234 220 222
310 84 133 142 95 29 301 240 225 194 170 195 204 202 192 186 181 176 178 197 191 192 186 195 202 197 195 183 216 228 203 181 209
145 137 120 94 73 81 56 14 150 105 164 159 127 158 183 187 177 183 185 184 171 159 174 169 176 172 157 157 192 181 178 168 166
134 141 127 114 87 81 82 86 93 84 78 63 94 180 199 207 197 191 171 161 165 152 154 159 156 154 153 167 168 184 200 204 187
153 149 139 119 103 94 94 99 100 95 82 83 80 80 102 203 197 181 165 162 150 147 151 147 134 124 115 104 122 142 157 164 159
166 142 125 105 101 107 114 118 92 100 101 101 81 80 78 79 131 128 135 139 135 120 124 123 119 118 107 95 90 105 126 135 136
153 136 126 117 94 91 114 131 117 116 115 137 117 94 90 92 96 98 96 96 108 108 113 108 106 107 107 104 100 100 107 112 115
145 120 116 128 121 93 81 130 111 119 119 110 113 113 104 99 109 114 113 108 102 105 118 122 125 132 131 135 130 128 128 142 121
166 131 117 88 67 76 110 137 129 124 126 127 132 132 122 123 123 127 117 110 106 102 100 105 120 122 132 121 123 127 130 140 136
100 115 117 127 149 149 149 138 133 125 137 144 160 135 141 142 143 146 147 133 126 115 94 104 111 116 116 119 119 117 117 121 126